7 * 24
多渠道服务支持
TIANQI-10(天启10号,又称“陵水号”)是中国北京国电高科科技有限公司研制运营的低轨物联网卫星,于北京时间2020年7月25日在太原卫星发射中心成功发射,是天启星座的第七颗在轨组网卫星。相较于早期卫星实现迭代升级,重量提升至35~50公斤级,具备更强发射功率,可降低终端功耗,服务电力物联网、生态监测等多领域窄带通信需求,标志着天启星座部署全面启动。
中国
(CN)
| 数据来源 | 国际轨道数据 |
| 星历时间: | 2024-06-05T08:05:43+0800 轨道信息已过期782天 |
| 半长轴: | 6573.469km |
| 偏心率: | 0.0015271 |
| 轨道倾角: | 97.392° |
| 近地点辐角 | 269.009° |
| 升交点赤经 | 266.929° |
| 平近点角 | 90.946° |
| 近地点: | 185.295km |
| 远地点: | 205.373km |
| 周期: | 88.400分钟 |
| 每日圈数: | 16.289617 |